Regional Weather Roundup
Issued by NWS

Home | Current Version | Previous Version | Text Only | Print | Product List | Glossary Off
Versions: 1 2 3 4 5 6 7 8 9 10 11 12 13 14 15 16 17 18 19 20 21 22 23 24 25 26 27 28 29 30 31 32 33 34 35 36 37 38 39 40 41 42 43 44 45 46 47 48 49 50

000
ASUS45 KBOI 200610
RWRID
WEATHER ROUNDUP FOR IDAHO
NATIONAL WEATHER SERVICE BOISE ID
1200 AM MDT MON OCT 20 2014

NOTE: "FAIR" INDICATES FEW OR NO CLOUDS BELOW 12000 FEET
WITH NO SIGNIFICANT WEATHER AND/OR OBSTRUCTIONS TO VISIBILITY

IDZ012-014-200700-
SOUTHWEST IDAHO


CITY           SKY/WX    TMP DP  RH WIND       PRES   REMARKS
BOISE          FAIR      58  32  37 SE10      29.86S
CALDWELL       FAIR      46  34  61 NW5       29.88S
MOUNTAIN HOME  FAIR      58  34  39 SE10      29.87S
$$

IDZ016-017-200700-
SOUTHCENTRAL IDAHO


CITY           SKY/WX    TMP DP  RH WIND       PRES   REMARKS
BURLEY         FAIR      47  34  60 SE5       29.98R
JEROME         LGT RAIN  58  29  33 NE12      29.96S
TWIN FALLS     FAIR      66  28  24 S15       29.95R
$$

IDZ019>023-200700-
SOUTHEAST IDAHO


CITY           SKY/WX    TMP DP  RH WIND       PRES   REMARKS
IDAHO FALLS    CLEAR     40  32  73 N3        30.06S
POCATELLO      CLEAR     42  33  70 N8        30.04R
REXBURG        PTCLDY    38  31  76 NE5       30.08R WCI  34
$$

IDZ006-010-011-018-031-032-200700-
CENTRAL IDAHO MOUNTAINS


CITY           SKY/WX    TMP DP  RH WIND       PRES   REMARKS
MCCALL         FAIR      40  32  73 CALM      29.96R
HAILEY         FAIR      45  30  57 NW8       30.10S
STANLEY          N/A     39  25  57 S3        30.10R
SALMON         NOT AVBL
CHALLIS        FAIR      45  28  51 E3        30.04R
$$

IDZ002-004-006-007-026-200700-
NORTHERN IDAHO


CITY           SKY/WX    TMP DP  RH WIND       PRES   REMARKS
LEWISTON       FAIR      60  44  55 CALM      29.75S
LOWELL           N/A     48  46  93 CALM      29.89R
COEUR D`ALENE  FAIR      50  45  81 NE9       29.80F
MULLAN PASS    FAIR      50  32  50 S7        29.96S
$$


USA.gov is the U.S. government's official web portal to all federal, state and local government web resources and services.